Probability
0 0 0 0 0 0 0 0 0 0 0 0 0 0 0 0 0 0 0 0 0 0 0 0 0 0 0 0 0 0 0 0 0 0 0 0 0 0
0 0 0 0 0 0 0 0 0 0 0 0 0 0 0 0 0 0 0 0 0 0 0 0 0 0 0 0 0 0 0 0 0 0 0 0 0 0
0 0 0 0 0 0 0 0 0 0 0 0 0 0 0 0 0 0 0 0 0 0 0 0 0 0 0 0 0 0 0 0 0 0 0 0 0 0
0 0 0 0 0 0 0 0 0 0 0 0 0 0 0 0 0 0 0 0 0 0 0 0 0 0 0 0 0 0 0 0 0 0 0 0 0 0
0 0 0 0 0 0 0 0 0 0 0 0 0 0 0 0 0 0 0 0 0 0 0 0 0 0 0 0 0 0 0 0 0 0 0 0 0 0
0 0 0 0 0 0 0 0 0 0 0 0 0 0 0 0 0 0 0 0 0 0 0 0 0 0 0 0 0 0 0 0 0 0 0 0 0 0
0 0 0 0 0 0 0 0 0 0 0 0 0 0 0 0 0 0 0 0 0 0 0 0 0 0 0 0 0 0 0 0 0 0 0 0 0 0
0 0 0 0 0 0 0 0 0 0 0 0 0 0 0 0 0 0 0 0 0 0 0 0 0 0 0 0 0 0 0 0 0 0 0 0 0 0
0 0 0 0 0 0 0 0 0 0 0 0 0 0 0 0 0 0 0 0 0 0 0 0 0 0 0 0 0 0 0 0 0 0 0 0 0 0
0 0 0 0 0 0 0 0 0 0 0 0 0 0 0 0 0 0 0 0 0 0 0 0 0 0 0 0 0 0 0 0 0 0 0 0 0 0
0 0 0 0 0 0 0 0 0 0 0 0 0 0 0 0 0 0 0 0 0 0 0 0 0 0 0 0 0 0 0 0 0 0 0 0 0 0
0 0 0 0 0 0 0 0 0 0 0 0 0 0 0 0 0 0 0 0 0 0 0 0 0 0 0 0 0 0 0 0 0 0 0 0 0 0
0 0 0 0 0 0 0 0 0 0 0 0 0 0 0 0 0 0 0 0 0 0 0 0 0 0 0 0 0 0 0 0 0 0 0 0 0 0
0 0 0 0 0 0 0 0 0 0 0 0 0 0 0 0 0 0 0 0 0 0 0 0 0 0 0 0 0 0 0 0 0 0 0 0 0 0
0 0 0 0 0 0 0 0 0 0 0 0 0 0 0 0 0 0 0 0 0 0 0 0 0 0 0 0 0 0 0 0 0 0 0 0 0 0
0 0 0 0 0 0 0 0 0 0 0 0 0 0 0 0 0 0 0 0 0 0 0 0 0 0 0 0 0 0 0 0 0 0 0 0 0 0
0 0 0 0 0 0 0 0 0 0 0 0 0 0 0 0 0 0 0 0 0 0 0 0 0 0 0 0 0 0 0 0 0 0 0 0 0 0
0 0 0 0 0 0 0 0 0 0 0 0 0 0 0 0 0 0 0 0 0 0 0 0 0 0 0 0 0 0 0 0 0 0 0 0 0 0
0 0 0 0 0 0 0 0 0 0 0 0 0 0 0 0 0 0 0 0 0 0 0 0 0 0 0 0 0 0 0 0 0 0 0 0 0 0
0 0 0 0 0 0 0 0 0 0 0 0 0 0 0 0 0 0 0 0 0 0 0 0 0 0 0 0 0 0 0 0 0 0 0 0 0 0
0 0 0 0 0 0 0 0 0 0 0 0 0 0 0 0 0 0 0 0 0 0 0 0 0 0 0 0 0 0 0 0 0 0 0 0 0 0
0 0 0 0 0 0 0 0 0 0 0 0 0 0 0 0 0 0 0 0 0 0 0 0 0 0 0 0 0 0 0 0 0 0 0 0 0 0
0 0 0 0 0 0 0 0 0 0 0 0 0 0 0 0 0 0 0 0 0 0 0 0 0 0 0 0 0 0 0 0 0 0 0 0 0 0
Wind_Speed
2 2 2 2 2 2 4 6 6 5 2 2 1 1 1 1 1 2 2 2 3 4 4 4 5 5 6 6 7 7 8 8 8 9 9 10 10 10
3 4 4 3 3 3 3 3 3 5 4 2 1 2 2 2 3 2 1 1 2 2 3 3 3 3 4 4 5 6 6 6 7 7 8 8 9 9
5 6 6 5 4 4 4 4 4 4 6 3 2 2 3 3 2 1 1 1 1 1 2 3 3 2 2 2 3 3 4 4 5 6 7 8 8 9
6 7 6 5 6 4 4 5 4 4 7 7 3 3 3 2 2 2 2 1 1 0 2 3 3 2 1 1 1 1 2 3 3 4 6 7 7 8
6 7 6 6 6 5 5 5 5 5 5 6 4 2 2 2 2 2 2 2 1 1 2 1 2 2 2 2 2 1 1 1 2 3 4 5 6 7
7 7 7 7 6 6 6 6 6 7 6 6 4 3 2 2 2 2 2 2 2 2 2 2 2 0 1 2 3 3 3 3 3 3 4 4 5 6
8 8 8 9 9 6 5 6 6 6 5 5 4 3 2 2 2 1 1 1 1 2 1 1 1 1 1 2 3 4 4 4 4 4 4 5 5 6
7 7 8 9 11 11 10 8 6 6 5 4 3 3 2 1 1 1 1 1 1 1 1 1 1 1 2 2 4 5 5 5 5 5 5 5 6 6
6 6 6 7 8 7 10 11 9 7 5 4 4 3 2 2 2 2 1 1 0 1 1 1 1 2 2 3 5 6 6 6 6 6 6 6 6 6
6 6 6 6 6 6 7 7 6 5 4 3 3 2 2 2 2 2 1 0 1 0 1 1 1 2 2 3 4 5 5 6 7 7 7 7 6 6
6 6 6 6 7 7 7 6 6 5 4 4 2 2 2 4 4 3 2 1 1 0 0 1 1 2 2 3 3 4 5 6 6 6 6 6 5 5
5 5 7 6 6 6 5 5 5 3 3 3 4 3 2 2 4 2 2 1 0 1 1 1 1 1 2 2 2 3 3 4 5 5 5 5 4 3
4 3 4 6 6 6 4 3 2 1 2 3 2 2 2 2 1 1 2 2 2 2 1 2 1 1 2 3 3 2 2 3 3 3 4 5 5 4
2 2 2 5 5 5 4 4 4 3 2 3 3 2 2 2 1 1 2 3 4 4 2 3 2 2 2 2 3 3 3 2 2 3 3 4 4 4
2 2 3 4 5 5 6 6 4 3 2 3 2 2 2 2 2 2 1 1 2 3 3 4 4 2 2 3 3 3 3 3 2 3 3 4 3 3
3 4 5 6 5 4 4 4 3 2 2 2 1 1 2 2 2 2 2 2 2 2 1 2 3 4 3 4 3 3 3 3 3 3 4 4 3 3
2 2 3 3 3 3 3 3 3 3 2 2 1 2 2 2 2 2 1 1 2 2 3 2 1 3 6 4 3 4 3 3 3 3 3 4 4 3
3 3 2 2 2 2 2 2 2 2 2 2 2 2 2 2 2 2 2 1 2 2 3 3 3 2 2 3 6 5 4 3 3 3 3 3 4 3
3 2 1 1 1 1 1 1 1 2 1 1 1 1 1 1 2 2 2 2 2 2 2 2 2 2 3 4 3 5 4 4 3 3 3 3 4 5
1 1 0 0 0 0 0 1 1 1 1 1 1 1 1 1 1 2 2 3 3 3 3 2 2 2 3 3 4 4 5 5 3 3 3 3 4 6
0 0 0 0 1 1 0 0 0 1 1 1 1 1 1 1 1 2 2 3 2 3 4 4 3 4 3 3 4 4 3 5 7 4 3 3 3 3
1 1 1 1 1 1 1 1 0 0 1 1 1 1 1 1 2 3 3 3 3 3 4 4 4 2 1 2 4 4 5 4 4 8 10 7 4 4
2 2 2 1 1 1 1 1 1 1 1 1 1 1 2 2 2 3 3 3 3 4 4 4 3 2 2 2 3 3 5 5 4 4 3 5 11 14
Wind_Direction
60 77 95 102 118 128 138 146 145 147 149 150 129 110 109 106 97 84 88 87 94 97 101 95 85 76 67 62 59 56 52 45 38 34 28 22 18 15
58 69 68 71 84 95 114 108 115 133 132 137 128 113 119 117 113 110 109 106 105 119 121 120 110 91 75 67 57 52 46 40 34 30 26 21 16 11
56 67 64 66 76 80 88 93 96 108 119 109 97 97 95 90 80 73 91 88 93 133 156 156 144 125 95 75 60 52 45 39 31 25 21 15 11 8
57 62 60 70 72 73 83 88 93 98 123 123 103 84 82 90 78 71 60 68 61 93 169 173 175 180 172 146 115 69 44 30 19 13 10 6 3 0
55 63 63 74 75 76 80 85 89 93 99 114 104 83 81 79 74 59 55 38 37 69 108 144 192 212 213 213 209 218 254 310 329 341 347 349 347 347
54 58 63 71 79 83 85 88 94 94 97 102 101 89 79 67 84 75 61 37 27 29 39 44 44 51 235 233 230 235 244 259 280 295 308 319 324 327
54 52 61 71 72 78 94 99 102 102 102 103 103 96 88 87 84 64 78 40 39 20 4 16 6 334 303 272 252 252 256 258 265 278 289 298 305 311
58 51 56 60 66 70 80 87 101 115 118 113 114 120 121 120 118 114 109 84 56 28 356 343 343 288 280 270 269 270 268 267 270 276 284 289 296 302
56 55 56 52 61 72 70 68 64 75 108 133 134 145 151 161 146 123 122 122 208 354 327 302 315 288 287 277 277 275 273 273 276 278 280 283 289 297
53 55 62 52 57 77 79 70 61 53 64 101 139 162 174 168 164 140 133 142 289 262 232 276 305 293 299 292 285 282 283 280 279 279 280 281 285 290
48 49 59 61 56 73 81 76 64 44 51 68 109 141 176 179 163 143 138 111 19 320 202 253 290 302 293 290 299 308 304 296 290 286 284 285 287 286
46 42 49 57 57 68 81 82 69 36 32 52 56 52 71 123 169 175 169 164 194 270 198 224 271 305 301 289 298 309 310 300 299 294 293 296 297 285
52 35 30 41 57 63 75 81 94 95 62 68 62 50 53 66 96 173 200 199 206 243 211 202 242 238 265 294 300 295 300 303 307 297 298 302 294 271
53 21 14 32 54 64 69 79 93 93 82 71 61 42 28 14 353 318 232 226 236 251 242 210 242 228 248 279 288 297 300 292 286 292 304 306 290 260
34 15 33 54 60 59 60 69 76 76 76 67 49 19 346 323 319 324 346 273 248 244 235 216 222 228 230 256 277 287 303 301 286 294 302 299 292 287
32 35 50 62 61 57 51 48 47 55 72 62 24 350 342 354 10 5 5 357 350 340 339 222 224 218 235 242 251 272 273 281 295 303 300 291 276 254
34 46 44 40 40 37 40 41 39 44 49 34 22 18 14 15 13 4 7 1 352 329 326 332 280 240 239 248 264 266 274 276 273 292 300 300 293 279
80 64 50 46 43 32 29 26 27 28 23 21 25 22 15 8 8 11 6 353 337 318 313 319 327 323 293 239 222 259 277 275 287 284 270 288 294 295
82 71 59 44 28 17 15 14 7 3 359 8 19 10 2 7 9 4 358 342 329 318 312 312 313 320 322 319 300 215 241 287 296 291 269 254 272 289
72 81 41 9 337 336 346 349 341 342 354 7 8 360 358 358 1 354 348 334 322 315 312 307 290 279 271 294 301 296 234 245 274 286 289 273 267 274
19 265 273 271 253 248 258 271 303 331 350 357 1 357 351 339 340 339 329 322 314 310 311 311 313 294 260 257 274 286 284 234 233 254 281 292 299 303
255 255 259 252 240 231 227 227 256 319 344 338 333 337 334 323 326 325 322 319 312 304 296 299 313 301 234 270 294 304 308 314 276 239 240 241 276 302
251 246 247 241 222 216 220 227 228 261 281 284 292 304 309 310 309 307 305 304 306 311 313 314 323 318 302 289 297 301 307 315 323 322 301 249 244 259